OK2BOZ-1 Weather Reports


Display with metric or nautical units.
time (UTC)temp
F
wind
direction
speed
MPH
gust
MPH
rain 1hr
in
rain 24hr
in
rain mn
in
humidity
%
barometer
mb
20260503053130 65 267 0.0 0.0 0.00 0.00 0.00 47 1018.8
20260503052616 63 270 0.0 0.0 0.00 0.00 0.00 48 1018.9
20260503052101 63 270 0.0 1.0 0.00 0.00 0.00 48 1018.9
20260503051547 63 264 0.0 1.0 0.00 0.00 0.00 47 1018.9
20260503051031 62 266 0.0 1.0 0.00 0.00 0.00 50 1018.9
20260503050516 59 264 0.0 0.0 0.00 0.00 0.00 53 1018.9
20260503050002 58 278 0.0 1.0 0.00 0.00 0.00 53 1018.9
20260503045448 59 270 0.0 0.0 0.00 0.00 0.00 52 1018.9
20260503044933 59 258 0.0 0.0 0.00 0.00 0.00 54 1018.9
20260503044419 58 270 0.0 0.0 0.00 0.00 0.00 57 1018.9
20260503043906 55 263 0.0 0.0 0.00 0.00 0.00 61 1018.9
20260503043351 54 272 0.0 0.0 0.00 0.00 0.00 64 1018.9
20260503042836 53 276 0.0 0.0 0.00 0.00 0.00 73 1018.9
20260503042322 52 267 0.0 0.0 0.00 0.00 0.00 93 1018.8
20260503041808 50 270 0.0 0.0 0.00 0.00 0.00 10 1018.8
20260503041254 47 270 0.0 0.0 0.00 0.00 0.00 10 1018.7
20260503040741 44 270 0.0 0.0 0.00 0.00 0.00 10 1018.7
20260502065116 70 280 0.0 1.0 0.00 0.00 0.00 44 1024.8
20260502064601 68 285 0.0 1.0 0.00 0.00 0.00 46 1024.8
20260502064046 68 265 1.0 1.0 0.00 0.00 0.00 46 1024.8
20260502063531 68 253 0.0 1.0 0.00 0.00 0.00 47 1024.8
20260502063016 68 282 0.0 1.0 0.00 0.00 0.00 46 1024.8
20260502062501 67 267 0.0 1.0 0.00 0.00 0.00 47 1024.8
20260502061945 66 237 1.0 2.0 0.00 0.00 0.00 47 1024.8
20260502061430 67 243 1.0 1.0 0.00 0.00 0.00 47 1024.8
20260502060915 66 293 0.0 1.0 0.00 0.00 0.00 48 1024.7
20260502060401 65 261 1.0 2.0 0.00 0.00 0.00 49 1024.7
20260502055846 65 255 1.0 1.0 0.00 0.00 0.00 49 1024.8
20260502055331 64 290 1.0 1.0 0.00 0.00 0.00 51 1024.7
20260502054816 66 262 0.0 1.0 0.00 0.00 0.00 46 1024.8
20260502054301 66 251 0.0 0.0 0.00 0.00 0.00 49 1024.8
20260502053747 63 285 0.0 1.0 0.00 0.00 0.00 53 1024.7